Location: Gallinara
(44.0333°N, 8.2333°E)
Time: 06:55:34
(UTC+00:00)

CZ-2C R/B - Pass Details

Date: 25 September 2020
Orbit: 669 x 783 km, 98.2° (Epoch: 24 October)

Event Time Altitude Azimuth Distance (km) Brightness Sun altitude
Rises 04:16:53 0° 5° (N) 3,256 6.0 -11.8°
Reaches altitude 10° 04:19:20 10° 357° (N) 2,335 5.1 -11.3°
Maximum altitude 04:24:02 37° 292° (WNW) 1,204 3.1 -10.5°
Drops below altitude 10° 04:28:45 10° 226° (SW) 2,336 4.5 -9.7°
Enters shadow 04:30:35 - 220° (SW) 3,018 5.1 -9.3°
